Time,TemperatureF,DewpointF,PressureIn,WindDirection,WindDirectionDegrees,WindSpeedMPH,WindSpeedGustMPH,Humidity,HourlyPrecipIn,Conditions,Clouds,dailyrainin,SoftwareType,DateUTC
2013-01-06 00:00:00,36.5,10.1,29.47,North,10,0.0,0.0,33,0.00,,,0.00,VWS V14.01,2013-01-06 05:00:00,
2013-01-06 00:03:00,36.5,10.1,29.47,North,10,0.0,0.0,33,0.00,,,0.00,VWS V14.01,2013-01-06 05:03:00,
2013-01-06 00:06:00,36.3,10.0,29.47,North,10,0.0,0.0,33,0.00,,,0.00,VWS V14.01,2013-01-06 05:06:00,
2013-01-06 00:11:00,36.5,10.1,29.47,North,10,0.0,0.0,33,0.00,,,0.00,VWS V14.01,2013-01-06 05:11:00,
2013-01-06 00:16:00,36.5,10.1,29.44,North,10,0.0,0.0,33,0.00,,,0.00,VWS V14.01,2013-01-06 05:16:00,
2013-01-06 00:21:00,36.5,10.1,29.44,North,10,0.0,0.0,33,0.00,,,0.00,VWS V14.01,2013-01-06 05:21:00,
2013-01-06 00:26:00,36.3,10.0,29.44,North,10,0.0,0.0,33,0.00,,,0.00,VWS V14.01,2013-01-06 05:26:00,
2013-01-06 00:31:00,36.3,10.6,29.44,North,10,0.0,0.0,34,0.00,,,0.00,VWS V14.01,2013-01-06 05:31:00,
2013-01-06 00:36:00,36.3,10.6,29.44,North,10,0.0,0.0,34,0.00,,,0.00,VWS V14.01,2013-01-06 05:36:00,
2013-01-06 00:41:00,36.3,10.6,29.44,North,10,0.0,0.0,34,0.00,,,0.00,VWS V14.01,2013-01-06 05:41:00,
2013-01-06 00:46:00,36.3,10.6,29.44,North,10,0.0,0.0,34,0.00,,,0.00,VWS V14.01,2013-01-06 05:46:00,
2013-01-06 00:51:00,36.3,10.6,29.44,North,10,0.0,0.0,34,0.00,,,0.00,VWS V14.01,2013-01-06 05:51:00,
2013-01-06 00:56:00,36.3,10.6,29.44,North,10,0.0,0.0,34,0.00,,,0.00,VWS V14.01,2013-01-06 05:56:00,
2013-01-06 01:01:00,36.3,10.6,29.44,North,10,0.0,0.0,34,0.00,,,0.00,VWS V14.01,2013-01-06 06:01:00,
2013-01-06 01:06:00,36.3,10.6,29.44,North,10,0.0,0.0,34,0.00,,,0.00,VWS V14.01,2013-01-06 06:06:00,
2013-01-06 01:11:00,36.3,10.6,29.44,North,10,0.0,0.0,34,0.00,,,0.00,VWS V14.01,2013-01-06 06:11:00,
2013-01-06 01:16:00,36.3,10.6,29.44,North,10,0.0,0.0,34,0.00,,,0.00,VWS V14.01,2013-01-06 06:16:00,
2013-01-06 01:21:00,36.3,10.6,29.44,North,10,0.0,0.0,34,0.00,,,0.00,VWS V14.01,2013-01-06 06:21:00,
2013-01-06 01:26:00,36.3,11.3,29.44,North,10,0.0,0.0,35,0.00,,,0.00,VWS V14.01,2013-01-06 06:26:00,
2013-01-06 01:31:00,36.3,11.3,29.44,North,10,0.0,0.0,35,0.00,,,0.00,VWS V14.01,2013-01-06 06:31:00,
2013-01-06 01:36:00,36.3,11.3,29.44,North,10,0.0,0.0,35,0.00,,,0.00,VWS V14.01,2013-01-06 06:36:00,
2013-01-06 01:41:00,36.3,11.3,29.44,North,10,0.0,0.0,35,0.00,,,0.00,VWS V14.01,2013-01-06 06:41:00,
2013-01-06 01:46:00,36.3,11.3,29.44,North,10,0.0,0.0,35,0.00,,,0.00,VWS V14.01,2013-01-06 06:46:00,
2013-01-06 01:51:00,36.3,11.9,29.44,North,10,0.0,0.0,36,0.00,,,0.00,VWS V14.01,2013-01-06 06:51:00,
2013-01-06 01:56:00,36.3,11.9,29.44,North,10,0.0,0.0,36,0.00,,,0.00,VWS V14.01,2013-01-06 06:56:00,
2013-01-06 02:01:00,36.1,11.8,29.44,North,10,0.0,0.0,36,0.00,,,0.00,VWS V14.01,2013-01-06 07:01:00,
2013-01-06 02:06:00,36.3,11.9,29.44,North,10,0.0,0.0,36,0.00,,,0.00,VWS V14.01,2013-01-06 07:06:00,
2013-01-06 02:11:00,36.1,11.8,29.44,North,10,0.0,0.0,36,0.00,,,0.00,VWS V14.01,2013-01-06 07:11:00,
2013-01-06 02:16:00,36.1,11.8,29.44,North,10,0.0,0.0,36,0.00,,,0.00,VWS V14.01,2013-01-06 07:16:00,
2013-01-06 02:21:00,36.1,11.8,29.44,North,10,0.0,0.0,36,0.00,,,0.00,VWS V14.01,2013-01-06 07:21:00,
2013-01-06 02:26:00,36.1,11.8,29.44,North,10,0.0,0.0,36,0.00,,,0.00,VWS V14.01,2013-01-06 07:26:00,
2013-01-06 02:31:00,36.0,11.6,29.41,North,10,0.0,0.0,36,0.00,,,0.00,VWS V14.01,2013-01-06 07:31:00,
2013-01-06 02:36:00,35.6,11.3,29.41,North,10,0.0,0.0,36,0.00,,,0.00,VWS V14.01,2013-01-06 07:36:00,
2013-01-06 02:41:00,35.4,11.8,29.41,North,10,0.0,0.0,37,0.00,,,0.00,VWS V14.01,2013-01-06 07:41:00,
2013-01-06 02:47:00,35.4,11.8,29.44,North,10,0.0,0.0,37,0.00,,,0.00,VWS V14.01,2013-01-06 07:47:00,
2013-01-06 02:52:00,35.4,11.8,29.44,North,10,0.0,0.0,37,0.00,,,0.00,VWS V14.01,2013-01-06 07:52:00,
2013-01-06 02:57:00,35.4,12.4,29.44,North,10,0.0,0.0,38,0.00,,,0.00,VWS V14.01,2013-01-06 07:57:00,
2013-01-06 03:02:00,35.4,12.4,29.41,North,10,0.0,0.0,38,0.00,,,0.00,VWS V14.01,2013-01-06 08:02:00,
2013-01-06 03:07:00,35.6,12.5,29.41,North,10,0.0,0.0,38,0.00,,,0.00,VWS V14.01,2013-01-06 08:07:00,
2013-01-06 03:12:00,35.6,12.5,29.41,North,10,0.0,0.0,38,0.00,,,0.00,VWS V14.01,2013-01-06 08:12:00,
2013-01-06 03:17:00,35.6,11.9,29.41,North,10,0.0,0.0,37,0.00,,,0.00,VWS V14.01,2013-01-06 08:17:00,
2013-01-06 03:22:00,35.6,12.5,29.41,North,10,0.0,0.0,38,0.00,,,0.00,VWS V14.01,2013-01-06 08:22:00,
2013-01-06 03:27:00,35.6,12.5,29.41,North,10,0.0,0.0,38,0.00,,,0.00,VWS V14.01,2013-01-06 08:27:00,
2013-01-06 03:32:00,35.8,12.7,29.41,North,10,0.0,0.0,38,0.00,,,0.00,VWS V14.01,2013-01-06 08:32:00,
2013-01-06 03:37:00,35.8,13.3,29.41,North,10,0.0,0.0,39,0.00,,,0.00,VWS V14.01,2013-01-06 08:37:00,
2013-01-06 03:42:00,35.8,13.3,29.41,North,10,0.0,0.0,39,0.00,,,0.00,VWS V14.01,2013-01-06 08:42:00,
2013-01-06 03:47:00,35.8,13.3,29.41,North,10,0.0,0.0,39,0.00,,,0.00,VWS V14.01,2013-01-06 08:47:00,
2013-01-06 03:52:00,35.6,13.1,29.41,North,10,0.0,0.0,39,0.00,,,0.00,VWS V14.01,2013-01-06 08:52:00,
2013-01-06 03:57:00,35.6,13.1,29.41,North,10,0.0,0.0,39,0.00,,,0.00,VWS V14.01,2013-01-06 08:57:00,
2013-01-06 04:02:00,35.6,13.1,29.41,North,10,0.0,0.0,39,0.00,,,0.00,VWS V14.01,2013-01-06 09:02:00,
2013-01-06 04:07:00,35.6,13.1,29.41,North,10,0.0,0.0,39,0.00,,,0.00,VWS V14.01,2013-01-06 09:07:00,
2013-01-06 04:12:00,35.6,13.1,29.41,North,10,0.0,0.0,39,0.00,,,0.00,VWS V14.01,2013-01-06 09:12:00,
2013-01-06 04:17:00,35.6,13.1,29.41,North,10,0.0,0.0,39,0.00,,,0.00,VWS V14.01,2013-01-06 09:17:00,
2013-01-06 04:22:00,35.6,13.1,29.41,North,10,0.0,0.0,39,0.00,,,0.00,VWS V14.01,2013-01-06 09:22:00,
2013-01-06 04:27:00,35.6,13.1,29.41,North,10,0.0,0.0,39,0.00,,,0.00,VWS V14.01,2013-01-06 09:27:00,
2013-01-06 04:32:00,35.4,13.5,29.41,North,10,0.0,0.0,40,0.00,,,0.00,VWS V14.01,2013-01-06 09:32:00,
2013-01-06 04:37:00,35.1,13.2,29.41,North,10,0.0,0.0,40,0.00,,,0.00,VWS V14.01,2013-01-06 09:37:00,
2013-01-06 04:42:00,34.9,13.0,29.41,North,10,0.0,0.0,40,0.00,,,0.00,VWS V14.01,2013-01-06 09:42:00,
2013-01-06 04:47:00,34.7,12.9,29.38,North,10,0.0,0.0,40,0.00,,,0.00,VWS V14.01,2013-01-06 09:47:00,
2013-01-06 04:52:00,34.3,12.5,29.38,North,10,0.0,0.0,40,0.00,,,0.00,VWS V14.01,2013-01-06 09:52:00,
2013-01-06 04:57:00,34.3,12.5,29.38,North,10,0.0,0.0,40,0.00,,,0.00,VWS V14.01,2013-01-06 09:57:00,
2013-01-06 05:02:00,34.2,12.4,29.38,North,10,0.0,0.0,40,0.00,,,0.00,VWS V14.01,2013-01-06 10:02:00,
2013-01-06 05:07:00,34.0,12.2,29.38,North,10,0.0,0.0,40,0.00,,,0.00,VWS V14.01,2013-01-06 10:07:00,
2013-01-06 05:12:00,33.8,12.1,29.38,North,10,0.0,0.0,40,0.00,,,0.00,VWS V14.01,2013-01-06 10:12:00,
2013-01-06 05:17:00,33.6,11.9,29.38,North,10,0.0,0.0,40,0.00,,,0.00,VWS V14.01,2013-01-06 10:17:00,
2013-01-06 05:22:00,33.4,11.7,29.38,North,10,0.0,0.0,40,0.00,,,0.00,VWS V14.01,2013-01-06 10:22:00,
2013-01-06 05:27:00,33.3,11.6,29.38,North,10,0.0,0.0,40,0.00,,,0.00,VWS V14.01,2013-01-06 10:27:00,
2013-01-06 05:32:00,33.3,12.1,29.38,North,10,0.0,0.0,41,0.00,,,0.00,VWS V14.01,2013-01-06 10:32:00,
2013-01-06 05:37:00,33.1,11.4,29.38,North,10,0.0,0.0,40,0.00,,,0.00,VWS V14.01,2013-01-06 10:37:00,
2013-01-06 05:42:00,33.1,12.0,29.38,North,10,0.0,0.0,41,0.00,,,0.00,VWS V14.01,2013-01-06 10:42:00,
2013-01-06 05:47:00,32.9,11.8,29.38,North,10,0.0,0.0,41,0.00,,,0.00,VWS V14.01,2013-01-06 10:47:00,
2013-01-06 05:52:00,32.5,11.5,29.38,North,10,0.0,0.0,41,0.00,,,0.00,VWS V14.01,2013-01-06 10:52:00,
2013-01-06 05:57:00,32.5,11.5,29.38,North,10,0.0,0.0,41,0.00,,,0.00,VWS V14.01,2013-01-06 10:57:00,
2013-01-06 06:02:00,32.5,11.5,29.41,North,10,0.0,0.0,41,0.00,,,0.00,VWS V14.01,2013-01-06 11:02:00,
2013-01-06 06:07:00,32.7,11.6,29.41,North,10,0.0,0.0,41,0.00,,,0.00,VWS V14.01,2013-01-06 11:07:00,
2013-01-06 06:12:00,32.7,11.6,29.41,North,10,0.0,0.0,41,0.00,,,0.00,VWS V14.01,2013-01-06 11:12:00,
2013-01-06 06:17:00,32.9,11.8,29.41,North,10,0.0,0.0,41,0.00,,,0.00,VWS V14.01,2013-01-06 11:17:00,
2013-01-06 06:22:00,32.9,11.8,29.41,North,10,0.0,0.0,41,0.00,,,0.00,VWS V14.01,2013-01-06 11:22:00,
2013-01-06 06:27:00,32.9,11.8,29.41,North,10,0.0,0.0,41,0.00,,,0.00,VWS V14.01,2013-01-06 11:27:00,
2013-01-06 06:32:00,33.1,12.0,29.41,North,10,0.0,0.0,41,0.00,,,0.00,VWS V14.01,2013-01-06 11:32:00,
2013-01-06 06:37:00,33.3,12.1,29.41,North,10,0.0,0.0,41,0.00,,,0.00,VWS V14.01,2013-01-06 11:37:00,
2013-01-06 06:42:00,33.4,12.3,29.41,North,10,0.0,0.0,41,0.00,,,0.00,VWS V14.01,2013-01-06 11:42:00,
2013-01-06 06:47:00,33.4,12.3,29.41,North,10,0.0,0.0,41,0.00,,,0.00,VWS V14.01,2013-01-06 11:47:00,
2013-01-06 06:52:00,33.6,12.4,29.41,North,10,0.0,0.0,41,0.00,,,0.00,VWS V14.01,2013-01-06 11:52:00,
2013-01-06 06:57:00,33.4,12.3,29.41,North,10,0.0,0.0,41,0.00,,,0.00,VWS V14.01,2013-01-06 11:57:00,
2013-01-06 07:02:00,33.6,12.4,29.41,North,10,0.0,0.0,41,0.00,,,0.00,VWS V14.01,2013-01-06 12:02:00,
2013-01-06 07:07:00,33.6,12.4,29.41,North,10,0.0,0.0,41,0.00,,,0.00,VWS V14.01,2013-01-06 12:07:00,
2013-01-06 07:12:00,33.8,12.6,29.41,North,10,0.0,0.0,41,0.00,,,0.00,VWS V14.01,2013-01-06 12:12:00,
2013-01-06 07:17:00,33.8,12.6,29.41,North,10,0.0,0.0,41,0.00,,,0.00,VWS V14.01,2013-01-06 12:17:00,
2013-01-06 07:22:00,34.0,12.8,29.41,North,10,0.0,0.0,41,0.00,,,0.00,VWS V14.01,2013-01-06 12:22:00,
2013-01-06 07:27:00,34.0,12.8,29.41,North,10,0.0,0.0,41,0.00,,,0.00,VWS V14.01,2013-01-06 12:27:00,
2013-01-06 07:32:00,34.0,12.8,29.41,North,10,0.0,0.0,41,0.00,,,0.00,VWS V14.01,2013-01-06 12:32:00,
2013-01-06 07:37:00,34.0,12.8,29.41,North,10,0.0,0.0,41,0.00,,,0.00,VWS V14.01,2013-01-06 12:37:00,
2013-01-06 07:42:00,34.0,12.8,29.41,North,10,0.0,0.0,41,0.00,,,0.00,VWS V14.01,2013-01-06 12:42:00,
2013-01-06 07:47:00,33.8,12.6,29.41,North,10,0.0,0.0,41,0.00,,,0.00,VWS V14.01,2013-01-06 12:47:00,
2013-01-06 07:52:00,33.8,12.6,29.41,North,10,0.0,0.0,41,0.00,,,0.00,VWS V14.01,2013-01-06 12:52:00,
2013-01-06 07:57:00,34.0,12.8,29.41,North,10,0.0,0.0,41,0.00,,,0.00,VWS V14.01,2013-01-06 12:57:00,
2013-01-06 08:02:00,34.2,12.9,29.41,North,10,0.0,0.0,41,0.00,,,0.00,VWS V14.01,2013-01-06 13:02:00,
2013-01-06 08:07:00,34.5,13.3,29.41,North,10,0.0,0.0,41,0.00,,,0.00,VWS V14.01,2013-01-06 13:07:00,
2013-01-06 08:12:00,34.5,13.8,29.41,North,10,0.0,0.0,42,0.00,,,0.00,VWS V14.01,2013-01-06 13:12:00,
2013-01-06 08:17:00,34.7,14.0,29.41,North,10,0.0,0.0,42,0.00,,,0.00,VWS V14.01,2013-01-06 13:17:00,
2013-01-06 08:22:00,34.7,13.4,29.41,North,10,0.0,0.0,41,0.00,,,0.00,VWS V14.01,2013-01-06 13:22:00,
2013-01-06 08:27:00,34.7,13.4,29.41,North,10,0.0,0.0,41,0.00,,,0.00,VWS V14.01,2013-01-06 13:27:00,
2013-01-06 08:32:00,34.7,13.4,29.41,North,10,0.0,0.0,41,0.00,,,0.00,VWS V14.01,2013-01-06 13:32:00,
2013-01-06 08:37:00,34.7,13.4,29.41,North,10,0.0,0.0,41,0.00,,,0.00,VWS V14.01,2013-01-06 13:37:00,
2013-01-06 08:42:00,34.9,13.6,29.41,North,10,0.0,0.0,41,0.00,,,0.00,VWS V14.01,2013-01-06 13:42:00,
2013-01-06 08:47:00,35.1,13.8,29.41,North,10,0.0,0.0,41,0.00,,,0.00,VWS V14.01,2013-01-06 13:47:00,
2013-01-06 08:52:00,35.2,13.9,29.41,North,10,0.0,0.0,41,0.00,,,0.00,VWS V14.01,2013-01-06 13:52:00,
2013-01-06 08:57:00,35.6,14.2,29.41,North,10,0.0,0.0,41,0.00,,,0.00,VWS V14.01,2013-01-06 13:57:00,
2013-01-06 09:02:00,36.1,14.7,29.41,NNW,343,0.0,0.0,41,0.00,,,0.00,VWS V14.01,2013-01-06 14:02:00,
2013-01-06 09:07:00,36.3,14.9,29.41,North,353,0.0,0.0,41,0.00,,,0.00,VWS V14.01,2013-01-06 14:07:00,
2013-01-06 09:12:00,36.5,15.1,29.41,North,353,0.0,0.0,41,0.00,,,0.00,VWS V14.01,2013-01-06 14:12:00,
2013-01-06 09:17:00,36.7,14.6,29.41,North,353,0.0,0.0,40,0.00,,,0.00,VWS V14.01,2013-01-06 14:17:00,
2013-01-06 09:22:00,36.9,14.8,29.41,North,353,0.0,0.0,40,0.00,,,0.00,VWS V14.01,2013-01-06 14:22:00,
2013-01-06 09:27:00,37.9,15.8,29.41,North,353,0.0,0.0,40,0.00,,,0.00,VWS V14.01,2013-01-06 14:27:00,
2013-01-06 09:32:00,38.7,16.4,29.41,North,353,0.0,0.0,40,0.00,,,0.00,VWS V14.01,2013-01-06 14:32:00,
2013-01-06 09:37:00,39.7,16.8,29.41,ENE,65,0.0,2.2,39,0.00,,,0.00,VWS V14.01,2013-01-06 14:37:00,
2013-01-06 09:42:00,40.3,17.3,29.41,East,87,0.0,2.2,39,0.00,,,0.00,VWS V14.01,2013-01-06 14:42:00,
2013-01-06 09:47:00,40.5,17.5,29.41,ENE,69,2.2,2.7,39,0.00,,,0.00,VWS V14.01,2013-01-06 14:47:00,
2013-01-06 09:52:00,40.1,15.9,29.41,SSW,199,0.0,0.0,37,0.00,,,0.00,VWS V14.01,2013-01-06 14:52:00,
2013-01-06 09:57:00,39.9,15.1,29.41,ESE,107,0.0,0.0,36,0.00,,,0.00,VWS V14.01,2013-01-06 14:57:00,
2013-01-06 10:02:00,39.9,14.5,29.41,North,349,0.0,0.0,35,0.00,,,0.00,VWS V14.01,2013-01-06 15:02:00,
2013-01-06 10:07:00,39.9,14.5,29.41,East,91,0.0,0.0,35,0.00,,,0.00,VWS V14.01,2013-01-06 15:07:00,
2013-01-06 10:12:00,40.1,14.7,29.41,East,85,0.0,0.0,35,0.00,,,0.00,VWS V14.01,2013-01-06 15:12:00,
2013-01-06 10:17:00,40.6,14.5,29.41,East,85,0.0,0.0,34,0.00,,,0.00,VWS V14.01,2013-01-06 15:17:00,
2013-01-06 10:23:00,41.2,15.0,29.41,West,266,0.0,0.0,34,0.00,,,0.00,VWS V14.01,2013-01-06 15:23:00,
2013-01-06 10:28:00,41.7,14.8,29.41,ESE,123,0.0,0.0,33,0.00,,,0.00,VWS V14.01,2013-01-06 15:28:00,
2013-01-06 10:33:00,42.1,15.1,29.41,ESE,121,0.0,0.0,33,0.00,,,0.00,VWS V14.01,2013-01-06 15:33:00,
2013-01-06 10:38:00,42.6,15.6,29.41,East,101,3.1,4.0,33,0.00,,,0.00,VWS V14.01,2013-01-06 15:38:00,
2013-01-06 10:43:00,42.8,15.0,29.41,ESE,112,0.0,3.1,32,0.00,,,0.00,VWS V14.01,2013-01-06 15:43:00,
2013-01-06 10:48:00,43.0,14.4,29.41,SE,129,2.7,2.7,31,0.00,,,0.00,VWS V14.01,2013-01-06 15:48:00,
2013-01-06 10:53:00,43.2,14.6,29.41,East,97,3.6,4.0,31,0.00,,,0.00,VWS V14.01,2013-01-06 15:53:00,
2013-01-06 10:58:00,43.2,14.6,29.41,ENE,66,0.0,0.0,31,0.00,,,0.00,VWS V14.01,2013-01-06 15:58:00,
2013-01-06 11:03:00,43.3,14.8,29.41,ESE,106,0.0,0.0,31,0.00,,,0.00,VWS V14.01,2013-01-06 16:03:00,
2013-01-06 11:08:00,43.5,14.9,29.41,ESE,113,3.6,3.6,31,0.00,,,0.00,VWS V14.01,2013-01-06 16:08:00,
2013-01-06 11:13:00,43.9,15.2,29.41,East,80,0.0,0.0,31,0.00,,,0.00,VWS V14.01,2013-01-06 16:13:00,
2013-01-06 11:18:00,44.1,15.4,29.38,WNW,303,0.0,0.0,31,0.00,,,0.00,VWS V14.01,2013-01-06 16:18:00,
2013-01-06 11:23:00,44.1,14.6,29.38,North,357,0.0,0.0,30,0.00,,,0.00,VWS V14.01,2013-01-06 16:23:00,
2013-01-06 11:28:00,44.2,14.8,29.38,NW,314,0.0,0.0,30,0.00,,,0.00,VWS V14.01,2013-01-06 16:28:00,
2013-01-06 11:33:00,44.6,15.1,29.38,ESE,106,2.7,3.6,30,0.00,,,0.00,VWS V14.01,2013-01-06 16:33:00,
2013-01-06 11:38:00,44.6,15.1,29.38,WSW,253,0.0,0.0,30,0.00,,,0.00,VWS V14.01,2013-01-06 16:38:00,
2013-01-06 11:43:00,44.8,15.3,29.38,NNW,341,0.0,0.0,30,0.00,,,0.00,VWS V14.01,2013-01-06 16:43:00,
2013-01-06 11:48:00,45.1,15.6,29.38,East,91,0.0,0.0,30,0.00,,,0.00,VWS V14.01,2013-01-06 16:48:00,
2013-01-06 11:53:00,45.1,15.6,29.38,North,3,0.0,2.7,30,0.00,,,0.00,VWS V14.01,2013-01-06 16:53:00,
2013-01-06 11:58:00,45.3,15.7,29.38,NNW,330,2.7,2.7,30,0.00,,,0.00,VWS V14.01,2013-01-06 16:58:00,
2013-01-06 12:03:00,45.3,15.7,29.35,North,353,0.0,0.0,30,0.00,,,0.00,VWS V14.01,2013-01-06 17:03:00,
2013-01-06 12:08:00,45.5,15.9,29.35,WNW,291,0.0,0.0,30,0.00,,,0.00,VWS V14.01,2013-01-06 17:08:00,
2013-01-06 12:13:00,45.9,16.2,29.35,ENE,77,0.0,0.0,30,0.00,,,0.00,VWS V14.01,2013-01-06 17:13:00,
2013-01-06 12:18:00,46.0,16.4,29.35,SW,215,2.7,2.7,30,0.00,,,0.00,VWS V14.01,2013-01-06 17:18:00,
2013-01-06 12:23:00,46.0,15.6,29.35,ENE,69,0.0,0.0,29,0.00,,,0.00,VWS V14.01,2013-01-06 17:23:00,
2013-01-06 12:28:00,46.2,15.7,29.35,ESE,112,0.0,0.0,29,0.00,,,0.00,VWS V14.01,2013-01-06 17:28:00,
2013-01-06 12:33:00,46.4,15.9,29.35,WNW,295,2.7,4.0,29,0.00,,,0.00,VWS V14.01,2013-01-06 17:33:00,
2013-01-06 12:38:00,46.4,15.9,29.35,North,357,2.7,2.7,29,0.00,,,0.00,VWS V14.01,2013-01-06 17:38:00,
2013-01-06 12:43:00,46.6,16.0,29.35,NNW,343,3.1,3.1,29,0.00,,,0.00,VWS V14.01,2013-01-06 17:43:00,
2013-01-06 12:48:00,46.8,16.2,29.32,NNW,346,3.1,3.1,29,0.00,,,0.00,VWS V14.01,2013-01-06 17:48:00,
2013-01-06 12:53:00,46.8,15.4,29.32,East,83,4.0,4.0,28,0.00,,,0.00,VWS V14.01,2013-01-06 17:53:00,
2013-01-06 12:58:00,46.9,15.6,29.32,ESE,118,3.1,3.6,28,0.00,,,0.00,VWS V14.01,2013-01-06 17:58:00,
2013-01-06 13:03:00,47.1,15.7,29.32,North,353,0.0,3.1,28,0.00,,,0.00,VWS V14.01,2013-01-06 18:03:00,
2013-01-06 13:08:00,47.1,15.7,29.32,East,97,4.0,4.0,28,0.00,,,0.00,VWS V14.01,2013-01-06 18:08:00,
2013-01-06 13:13:00,47.1,15.7,29.32,NW,313,0.0,0.0,28,0.00,,,0.00,VWS V14.01,2013-01-06 18:13:00,
2013-01-06 13:18:00,47.3,15.9,29.32,NW,326,4.0,4.9,28,0.00,,,0.00,VWS V14.01,2013-01-06 18:18:00,
2013-01-06 13:23:00,47.1,15.7,29.32,WSW,243,0.0,2.2,28,0.00,,,0.00,VWS V14.01,2013-01-06 18:23:00,
2013-01-06 13:28:00,47.3,15.9,29.32,NW,312,0.0,3.6,28,0.00,,,0.00,VWS V14.01,2013-01-06 18:28:00,
2013-01-06 13:33:00,47.3,15.9,29.32,North,6,0.0,3.6,28,0.00,,,0.00,VWS V14.01,2013-01-06 18:33:00,
2013-01-06 13:38:00,47.3,15.9,29.32,East,96,2.7,2.7,28,0.00,,,0.00,VWS V14.01,2013-01-06 18:38:00,
2013-01-06 13:43:00,47.3,15.9,29.32,ESE,114,0.0,4.0,28,0.00,,,0.00,VWS V14.01,2013-01-06 18:43:00,
2013-01-06 13:48:00,47.3,15.9,29.32,ESE,123,4.0,4.9,28,0.00,,,0.00,VWS V14.01,2013-01-06 18:48:00,
2013-01-06 13:53:00,47.3,15.0,29.32,NW,304,2.7,2.7,27,0.00,,,0.00,VWS V14.01,2013-01-06 18:53:00,
2013-01-06 13:58:00,47.1,14.9,29.32,North,357,4.0,4.0,27,0.00,,,0.00,VWS V14.01,2013-01-06 18:58:00,
2013-01-06 14:03:00,47.1,14.9,29.32,NW,325,0.0,2.2,27,0.00,,,0.00,VWS V14.01,2013-01-06 19:03:00,
2013-01-06 14:08:00,47.1,14.9,29.32,NW,325,0.0,2.2,27,0.00,,,0.00,VWS V14.01,2013-01-06 19:08:00,
2013-01-06 14:13:00,47.1,14.9,29.32,ESE,114,4.9,4.9,27,0.00,,,0.00,VWS V14.01,2013-01-06 19:13:00,
2013-01-06 14:18:00,46.9,14.7,29.32,East,100,4.9,4.9,27,0.00,,,0.00,VWS V14.01,2013-01-06 19:18:00,
2013-01-06 14:23:00,46.8,14.6,29.32,East,90,2.7,3.1,27,0.00,,,0.00,VWS V14.01,2013-01-06 19:23:00,
2013-01-06 14:29:00,46.6,14.4,29.32,ENE,69,0.0,2.7,27,0.00,,,0.00,VWS V14.01,2013-01-06 19:29:00,
2013-01-06 14:34:00,46.4,14.2,29.32,NW,322,3.1,3.1,27,0.00,,,0.00,VWS V14.01,2013-01-06 19:34:00,
2013-01-06 14:39:00,46.4,14.2,29.32,WNW,285,2.2,2.2,27,0.00,,,0.00,VWS V14.01,2013-01-06 19:39:00,
2013-01-06 14:44:00,46.4,14.2,29.32,WNW,286,2.2,2.2,27,0.00,,,0.00,VWS V14.01,2013-01-06 19:44:00,
2013-01-06 14:49:00,46.2,14.9,29.32,West,265,3.1,3.1,28,0.00,,,0.00,VWS V14.01,2013-01-06 19:49:00,
2013-01-06 14:54:00,46.2,14.9,29.32,East,82,3.1,3.1,28,0.00,,,0.00,VWS V14.01,2013-01-06 19:54:00,
2013-01-06 14:59:00,46.0,14.8,29.32,NW,316,2.7,3.6,28,0.00,,,0.00,VWS V14.01,2013-01-06 19:59:00,
2013-01-06 15:04:00,45.9,14.6,29.32,WNW,296,0.0,2.7,28,0.00,,,0.00,VWS V14.01,2013-01-06 20:04:00,
2013-01-06 15:09:00,45.9,14.6,29.32,NW,309,3.1,3.1,28,0.00,,,0.00,VWS V14.01,2013-01-06 20:09:00,
2013-01-06 15:11:00,45.9,14.6,29.32,West,271,0.0,0.0,28,0.00,,,0.00,VWS V14.01,2013-01-06 20:11:00,
2013-01-06 15:13:00,45.7,14.5,29.32,West,271,0.0,0.0,28,0.00,,,0.00,VWS V14.01,2013-01-06 20:13:00,
2013-01-06 15:18:00,45.5,14.3,29.32,North,353,3.1,3.1,28,0.00,,,0.00,VWS V14.01,2013-01-06 20:18:00,
2013-01-06 15:23:00,45.5,14.3,29.32,North,357,0.0,3.1,28,0.00,,,0.00,VWS V14.01,2013-01-06 20:23:00,
2013-01-06 15:28:00,45.5,14.3,29.32,NNW,337,0.0,0.0,28,0.00,,,0.00,VWS V14.01,2013-01-06 20:28:00,
2013-01-06 15:33:00,45.3,14.1,29.32,WNW,296,0.0,0.0,28,0.00,,,0.00,VWS V14.01,2013-01-06 20:33:00,
2013-01-06 15:38:00,45.3,14.1,29.32,East,92,3.1,3.1,28,0.00,,,0.00,VWS V14.01,2013-01-06 20:38:00,
2013-01-06 15:43:00,45.1,14.0,29.32,WNW,296,0.0,0.0,28,0.00,,,0.00,VWS V14.01,2013-01-06 20:43:00,
2013-01-06 15:48:00,45.0,13.8,29.32,NW,322,0.0,0.0,28,0.00,,,0.00,VWS V14.01,2013-01-06 20:48:00,
2013-01-06 15:53:00,45.0,13.8,29.32,NNE,29,0.0,0.0,28,0.00,,,0.00,VWS V14.01,2013-01-06 20:53:00,
2013-01-06 15:58:00,44.8,13.7,29.32,NW,322,3.1,3.1,28,0.00,,,0.00,VWS V14.01,2013-01-06 20:58:00,
2013-01-06 16:00:00,44.6,13.5,29.32,NNE,28,0.0,0.0,28,0.00,,,0.00,VWS V14.01,2013-01-06 21:00:00,
2013-01-06 16:05:00,44.4,14.2,29.32,WNW,302,0.0,0.0,29,0.00,,,0.00,VWS V14.01,2013-01-06 21:05:00,
2013-01-06 16:10:00,44.2,14.0,29.32,NW,304,0.0,0.0,29,0.00,,,0.00,VWS V14.01,2013-01-06 21:10:00,
2013-01-06 16:15:00,44.1,13.9,29.32,NE,42,0.0,0.0,29,0.00,,,0.00,VWS V14.01,2013-01-06 21:15:00,
2013-01-06 16:20:00,43.9,13.7,29.32,NNE,30,0.0,0.0,29,0.00,,,0.00,VWS V14.01,2013-01-06 21:20:00,
2013-01-06 16:25:00,43.7,13.5,29.32,West,272,0.0,0.0,29,0.00,,,0.00,VWS V14.01,2013-01-06 21:25:00,
2013-01-06 16:30:00,43.7,13.5,29.32,WNW,293,0.0,0.0,29,0.00,,,0.00,VWS V14.01,2013-01-06 21:30:00,
2013-01-06 16:35:00,43.5,13.4,29.32,WNW,299,0.0,0.0,29,0.00,,,0.00,VWS V14.01,2013-01-06 21:35:00,
2013-01-06 16:40:00,43.5,13.4,29.32,WNW,300,0.0,0.0,29,0.00,,,0.00,VWS V14.01,2013-01-06 21:40:00,
2013-01-06 16:45:00,43.3,13.2,29.32,WNW,300,0.0,0.0,29,0.00,,,0.00,VWS V14.01,2013-01-06 21:45:00,
2013-01-06 16:50:00,43.3,13.2,29.32,NNW,338,0.0,0.0,29,0.00,,,0.00,VWS V14.01,2013-01-06 21:50:00,
2013-01-06 16:55:00,43.3,13.2,29.32,NNW,338,0.0,0.0,29,0.00,,,0.00,VWS V14.01,2013-01-06 21:55:00,
2013-01-06 17:00:00,43.2,13.1,29.32,NNW,341,0.0,0.0,29,0.00,,,0.00,VWS V14.01,2013-01-06 22:00:00,
2013-01-06 17:05:00,43.2,13.1,29.32,NNW,341,0.0,0.0,29,0.00,,,0.00,VWS V14.01,2013-01-06 22:05:00,
2013-01-06 17:10:00,43.0,12.9,29.32,NNW,341,0.0,0.0,29,0.00,,,0.00,VWS V14.01,2013-01-06 22:10:00,
2013-01-06 17:15:00,42.8,12.8,29.32,NNW,341,0.0,0.0,29,0.00,,,0.00,VWS V14.01,2013-01-06 22:15:00,
2013-01-06 17:20:00,42.8,12.8,29.32,North,0,0.0,0.0,29,0.00,,,0.00,VWS V14.01,2013-01-06 22:20:00,
2013-01-06 17:25:00,42.8,12.8,29.32,North,350,0.0,0.0,29,0.00,,,0.00,VWS V14.01,2013-01-06 22:25:00,
2013-01-06 17:30:00,42.8,13.5,29.32,North,349,0.0,0.0,30,0.00,,,0.00,VWS V14.01,2013-01-06 22:30:00,
2013-01-06 17:35:00,42.6,13.4,29.32,North,349,0.0,0.0,30,0.00,,,0.00,VWS V14.01,2013-01-06 22:35:00,
2013-01-06 17:40:00,42.6,13.4,29.32,NNW,345,2.7,4.0,30,0.00,,,0.00,VWS V14.01,2013-01-06 22:40:00,
2013-01-06 17:46:00,42.6,13.4,29.35,NNW,344,3.1,3.1,30,0.00,,,0.00,VWS V14.01,2013-01-06 22:46:00,
2013-01-06 17:51:00,42.8,13.5,29.35,NNW,330,6.3,6.3,30,0.00,,,0.00,VWS V14.01,2013-01-06 22:51:00,
2013-01-06 17:56:00,42.8,13.5,29.35,NNW,337,7.6,11.0,30,0.00,,,0.00,VWS V14.01,2013-01-06 22:56:00,
2013-01-06 18:01:00,43.0,13.7,29.35,NNW,341,0.0,4.9,30,0.00,,,0.00,VWS V14.01,2013-01-06 23:01:00,
2013-01-06 18:06:00,43.0,13.7,29.35,NNW,343,5.4,5.8,30,0.00,,,0.00,VWS V14.01,2013-01-06 23:06:00,
2013-01-06 18:11:00,43.2,13.1,29.35,NW,324,2.7,4.0,29,0.00,,,0.00,VWS V14.01,2013-01-06 23:11:00,
2013-01-06 18:16:00,43.3,13.2,29.35,NNW,329,2.7,4.0,29,0.00,,,0.00,VWS V14.01,2013-01-06 23:16:00,
2013-01-06 18:21:00,43.3,13.2,29.35,WNW,299,5.4,6.3,29,0.00,,,0.00,VWS V14.01,2013-01-06 23:21:00,
2013-01-06 18:26:00,43.5,13.4,29.35,NNW,341,3.1,4.0,29,0.00,,,0.00,VWS V14.01,2013-01-06 23:26:00,
2013-01-06 18:31:00,43.7,13.5,29.35,North,353,4.0,4.0,29,0.00,,,0.00,VWS V14.01,2013-01-06 23:31:00,
2013-01-06 18:36:00,44.1,13.9,29.35,NW,322,4.0,4.0,29,0.00,,,0.00,VWS V14.01,2013-01-06 23:36:00,
2013-01-06 18:41:00,44.1,13.9,29.35,NNW,345,5.4,5.4,29,0.00,,,0.00,VWS V14.01,2013-01-06 23:41:00,
2013-01-06 18:46:00,44.1,13.9,29.35,NW,322,5.4,5.4,29,0.00,,,0.00,VWS V14.01,2013-01-06 23:46:00,
2013-01-06 18:51:00,44.1,13.9,29.35,NNW,338,3.6,3.6,29,0.00,,,0.00,VWS V14.01,2013-01-06 23:51:00,
2013-01-06 18:56:00,44.1,13.9,29.35,NW,314,0.0,4.9,29,0.00,,,0.00,VWS V14.01,2013-01-06 23:56:00,
2013-01-06 19:01:00,44.1,13.9,29.35,NNW,329,5.4,5.4,29,0.00,,,0.00,VWS V14.01,2013-01-07 00:01:00,
2013-01-06 19:06:00,44.1,13.9,29.35,NW,322,2.7,2.7,29,0.00,,,0.00,VWS V14.01,2013-01-07 00:06:00,
2013-01-06 19:11:00,43.9,13.7,29.35,NNW,348,2.2,2.2,29,0.00,,,0.00,VWS V14.01,2013-01-07 00:11:00,
2013-01-06 19:16:00,43.7,13.5,29.38,NNW,337,2.2,2.7,29,0.00,,,0.00,VWS V14.01,2013-01-07 00:16:00,
2013-01-06 19:21:00,43.7,13.5,29.38,NNW,337,0.0,0.0,29,0.00,,,0.00,VWS V14.01,2013-01-07 00:21:00,
2013-01-06 19:26:00,43.5,13.4,29.38,NNW,337,0.0,3.1,29,0.00,,,0.00,VWS V14.01,2013-01-07 00:26:00,
2013-01-06 19:31:00,43.5,13.4,29.38,North,0,3.1,3.1,29,0.00,,,0.00,VWS V14.01,2013-01-07 00:31:00,
2013-01-06 19:36:00,43.7,13.5,29.38,NNW,343,0.0,0.0,29,0.00,,,0.00,VWS V14.01,2013-01-07 00:36:00,
2013-01-06 19:41:00,43.7,13.5,29.38,NNW,327,0.0,0.0,29,0.00,,,0.00,VWS V14.01,2013-01-07 00:41:00,
2013-01-06 19:46:00,43.7,13.5,29.38,NNW,334,0.0,0.0,29,0.00,,,0.00,VWS V14.01,2013-01-07 00:46:00,
2013-01-06 19:51:00,43.5,13.4,29.38,North,0,3.6,5.8,29,0.00,,,0.00,VWS V14.01,2013-01-07 00:51:00,
2013-01-06 19:56:00,43.5,13.4,29.38,NNW,343,4.0,4.0,29,0.00,,,0.00,VWS V14.01,2013-01-07 00:56:00,
2013-01-06 20:01:00,43.3,13.2,29.38,NNW,331,0.0,0.0,29,0.00,,,0.00,VWS V14.01,2013-01-07 01:01:00,
2013-01-06 20:06:00,43.3,13.2,29.38,North,349,3.6,4.0,29,0.00,,,0.00,VWS V14.01,2013-01-07 01:06:00,
2013-01-06 20:11:00,43.3,13.2,29.38,NNW,333,5.4,5.4,29,0.00,,,0.00,VWS V14.01,2013-01-07 01:11:00,
2013-01-06 20:16:00,43.3,13.2,29.38,NW,315,3.1,3.1,29,0.00,,,0.00,VWS V14.01,2013-01-07 01:16:00,
2013-01-06 20:21:00,43.2,13.1,29.38,West,267,4.0,5.4,29,0.00,,,0.00,VWS V14.01,2013-01-07 01:21:00,
2013-01-06 20:26:00,43.0,12.9,29.38,NNW,329,4.0,6.3,29,0.00,,,0.00,VWS V14.01,2013-01-07 01:26:00,
2013-01-06 20:31:00,42.8,12.8,29.38,NNW,333,0.0,0.0,29,0.00,,,0.00,VWS V14.01,2013-01-07 01:31:00,
2013-01-06 20:36:00,42.6,12.6,29.38,NNW,333,0.0,0.0,29,0.00,,,0.00,VWS V14.01,2013-01-07 01:36:00,
2013-01-06 20:41:00,42.4,12.4,29.38,NW,325,2.7,3.6,29,0.00,,,0.00,VWS V14.01,2013-01-07 01:41:00,
2013-01-06 20:46:00,42.4,12.4,29.38,NNW,334,0.0,0.0,29,0.00,,,0.00,VWS V14.01,2013-01-07 01:46:00,
2013-01-06 20:51:00,42.3,12.3,29.38,NNW,334,0.0,0.0,29,0.00,,,0.00,VWS V14.01,2013-01-07 01:51:00,
2013-01-06 20:56:00,42.1,12.1,29.38,NNW,334,0.0,0.0,29,0.00,,,0.00,VWS V14.01,2013-01-07 01:56:00,
2013-01-06 21:01:00,41.9,12.0,29.38,NNW,334,0.0,0.0,29,0.00,,,0.00,VWS V14.01,2013-01-07 02:01:00,
2013-01-06 21:06:00,41.9,12.0,29.38,NNW,334,0.0,0.0,29,0.00,,,0.00,VWS V14.01,2013-01-07 02:06:00,
2013-01-06 21:11:00,41.5,11.7,29.38,NNW,334,0.0,0.0,29,0.00,,,0.00,VWS V14.01,2013-01-07 02:11:00,
2013-01-06 21:16:00,41.5,11.7,29.38,NNW,334,0.0,0.0,29,0.00,,,0.00,VWS V14.01,2013-01-07 02:16:00,
2013-01-06 21:21:00,41.2,11.4,29.38,NNW,334,0.0,0.0,29,0.00,,,0.00,VWS V14.01,2013-01-07 02:21:00,
2013-01-06 21:26:00,41.2,11.4,29.38,NNW,334,0.0,0.0,29,0.00,,,0.00,VWS V14.01,2013-01-07 02:26:00,
2013-01-06 21:31:00,41.2,11.4,29.38,NNW,334,0.0,0.0,29,0.00,,,0.00,VWS V14.01,2013-01-07 02:31:00,
2013-01-06 21:36:00,41.2,11.4,29.38,North,353,6.3,8.1,29,0.00,,,0.00,VWS V14.01,2013-01-07 02:36:00,
2013-01-06 21:41:00,41.5,12.4,29.38,NW,318,4.0,4.0,30,0.00,,,0.00,VWS V14.01,2013-01-07 02:41:00,
2013-01-06 21:46:00,41.5,12.4,29.38,NNW,330,0.0,3.1,30,0.00,,,0.00,VWS V14.01,2013-01-07 02:46:00,
2013-01-06 21:51:00,41.7,11.8,29.38,NNW,327,5.8,5.8,29,0.00,,,0.00,VWS V14.01,2013-01-07 02:51:00,
2013-01-06 21:56:00,41.7,11.8,29.38,North,353,0.0,3.1,29,0.00,,,0.00,VWS V14.01,2013-01-07 02:56:00,
2013-01-06 22:01:00,41.7,11.8,29.38,North,349,0.0,0.0,29,0.00,,,0.00,VWS V14.01,2013-01-07 03:01:00,
2013-01-06 22:06:00,41.5,11.7,29.38,North,349,2.7,2.7,29,0.00,,,0.00,VWS V14.01,2013-01-07 03:06:00,
2013-01-06 22:11:00,41.5,12.4,29.38,NNW,328,0.0,0.0,30,0.00,,,0.00,VWS V14.01,2013-01-07 03:11:00,
2013-01-06 22:16:00,41.7,12.6,29.38,NNW,328,0.0,0.0,30,0.00,,,0.00,VWS V14.01,2013-01-07 03:16:00,
2013-01-06 22:21:00,41.5,12.4,29.38,NNW,328,0.0,0.0,30,0.00,,,0.00,VWS V14.01,2013-01-07 03:21:00,
2013-01-06 22:26:00,41.5,12.4,29.38,NNW,328,0.0,0.0,30,0.00,,,0.00,VWS V14.01,2013-01-07 03:26:00,
2013-01-06 22:31:00,41.4,12.3,29.41,NNW,328,0.0,0.0,30,0.00,,,0.00,VWS V14.01,2013-01-07 03:31:00,
2013-01-06 22:36:00,41.2,12.1,29.41,NNW,328,0.0,0.0,30,0.00,,,0.00,VWS V14.01,2013-01-07 03:36:00,
2013-01-06 22:41:00,41.2,12.1,29.41,NNW,328,0.0,0.0,30,0.00,,,0.00,VWS V14.01,2013-01-07 03:41:00,
2013-01-06 22:46:00,41.2,12.1,29.41,NNW,328,0.0,0.0,30,0.00,,,0.00,VWS V14.01,2013-01-07 03:46:00,
2013-01-06 22:51:00,41.2,12.1,29.41,NNW,328,0.0,0.0,30,0.00,,,0.00,VWS V14.01,2013-01-07 03:51:00,
2013-01-06 22:56:00,41.2,12.1,29.41,NNW,328,0.0,0.0,30,0.00,,,0.00,VWS V14.01,2013-01-07 03:56:00,
2013-01-06 23:01:00,41.2,12.1,29.41,NNW,328,0.0,0.0,30,0.00,,,0.00,VWS V14.01,2013-01-07 04:01:00,
2013-01-06 23:06:00,41.2,12.1,29.41,NNW,328,0.0,0.0,30,0.00,,,0.00,VWS V14.01,2013-01-07 04:06:00,
2013-01-06 23:11:00,41.2,12.1,29.41,NNW,328,0.0,0.0,30,0.00,,,0.00,VWS V14.01,2013-01-07 04:11:00,
2013-01-06 23:16:00,41.2,12.1,29.41,NNW,328,0.0,0.0,30,0.00,,,0.00,VWS V14.01,2013-01-07 04:16:00,
2013-01-06 23:21:00,41.2,12.9,29.41,North,0,0.0,3.1,31,0.00,,,0.00,VWS V14.01,2013-01-07 04:21:00,
2013-01-06 23:26:00,41.4,13.0,29.41,North,0,3.1,3.1,31,0.00,,,0.00,VWS V14.01,2013-01-07 04:26:00,
2013-01-06 23:31:00,41.5,13.2,29.44,NNW,341,0.0,0.0,31,0.00,,,0.00,VWS V14.01,2013-01-07 04:31:00,
2013-01-06 23:36:00,41.5,13.2,29.44,NNW,339,2.2,5.4,31,0.00,,,0.00,VWS V14.01,2013-01-07 04:36:00,
2013-01-06 23:41:00,41.7,14.1,29.44,North,357,0.0,0.0,32,0.00,,,0.00,VWS V14.01,2013-01-07 04:41:00,
2013-01-06 23:46:00,41.9,14.2,29.44,North,353,0.0,2.2,32,0.00,,,0.00,VWS V14.01,2013-01-07 04:46:00,
2013-01-06 23:51:00,41.9,14.2,29.44,West,270,2.2,2.2,32,0.00,,,0.00,VWS V14.01,2013-01-07 04:51:00,
2013-01-06 23:56:00,41.9,14.2,29.44,North,9,0.0,0.0,32,0.00,,,0.00,VWS V14.01,2013-01-07 04:56:00,